This is the latest recevied weather packets stored in our database for station/object W1HVD. If no packets are shown the sender has not sent any weather packets the latest 10 day(s).
| Time | Temp. | Humidity | Pressure | Rain* | Wind** | Luminosity | Snow |
|---|---|---|---|---|---|---|---|
| 1777826720 | 10° C | 60% | 1006 hPa | 0 mm | - | 306 W/m² | - |
| 1777826417 | 9.44° C | 60% | 1005.9 hPa | 0 mm | - | 262 W/m² | - |
| 1777826114 | 10° C | 62% | 1006.1 hPa | 0 mm | - | 237 W/m² | - |
| 1777825811 | 10° C | 62% | 1005.8 hPa | 0 mm | - | 276 W/m² | - |
| 1777825508 | 10° C | 66% | 1005.8 hPa | 0 mm | - | 219 W/m² | - |
| 1777825206 | 10° C | 67% | 1005.6 hPa | 0 mm | - | 205 W/m² | - |
| 1777824902 | 9.44° C | 68% | 1005.7 hPa | 0 mm | - | 495 W/m² | - |
| 1777824598 | 9.44° C | 72% | 1005.8 hPa | 0 mm | - | 648 W/m² | - |
| 1777824290 | 8.89° C | 72% | 1005.8 hPa | 0 mm | - | 203 W/m² | - |
| 1777823990 | 8.89° C | 74% | 1005.7 hPa | 0 mm | - | 214 W/m² | - |
| 1777823688 | 8.33° C | 75% | 1005.6 hPa | 0 mm | - | 169 W/m² | - |
| 1777823384 | 8.33° C | 76% | 1005.8 hPa | 0 mm | - | 169 W/m² | - |
| 1777823083 | 8.33° C | 72% | 1005.8 hPa | 0 mm | - | 193 W/m² | - |
| 1777822780 | 8.89° C | 72% | 1006 hPa | 0 mm | - | 173 W/m² | - |
| 1777822478 | 8.89° C | 72% | 1005.8 hPa | 0 mm | - | 165 W/m² | - |
| 1777822175 | 8.89° C | 72% | 1005.8 hPa | 0 mm | - | 314 W/m² | - |
| 1777821872 | 8.89° C | 72% | 1005.8 hPa | 0 mm | - | 247 W/m² | - |
| 1777821569 | 8.89° C | 72% | 1005.9 hPa | 0 mm | - | 315 W/m² | - |
| 1777821268 | 8.33° C | 72% | 1005.7 hPa | 0 mm | - | 234 W/m² | - |
| 1777820964 | 8.89° C | 71% | 1005.8 hPa | 0 mm | - | 235 W/m² | - |
| 1777820661 | 8.89° C | 70% | 1005.6 hPa | 0 mm | - | 253 W/m² | - |
| 1777820357 | 8.89° C | 71% | 1005.8 hPa | 0 mm | - | 191 W/m² | - |
| 1777820055 | 8.33° C | 73% | 1005.9 hPa | 0 mm | - | 244 W/m² | - |
| 1777819751 | 8.33° C | 73% | 1005.8 hPa | 0 mm | - | 222 W/m² | - |
| 1777819450 | 8.33° C | 74% | 1005.6 hPa | 0 mm | - | 266 W/m² | - |
* Rain latest hour (hover to see other rain measurements)
** Current wind speed in m/s (hover to see current wind gust speed)